Aeroporto :
LOGIN :

Iscrizione | Disclaimer

   EN    FR    IT 

 










Sommario :    VFR   VFR Marginale   IFR   IFR Intensivo   IFR Molto Intensivo
Visibilità : 
Base nubi : 
>= 8 km
>= 3000ft
5 / 8 km
1000 / 3000 ft
1500m / 5 km
500 / 1000 ft
800 / 1500m
200 / 500 ft
< 800m
< 200 ft
Simboli :   Temporali  Nebbia  Neve Forte  Precipitazioni Forti  Vento > 20 kt
SIGMETs :   Varie  Temporali  Ghiacco  Turbolenza  Onda orograficha  Ceneri Vulcaniche






- Altitudine del aeroporto : 325 ft
- Codice IATA : BES


LFRB - Brest

ULTIMO METAR :
  • 100000Z AUTO 03004KT 9000 NSC 12/10 Q1021 NOSIG

METARs OBSOLETI :
  • 092330Z AUTO 35004KT 7000 NSC 11/10 Q1021 NOSIG
  • 092300Z AUTO 36003KT 6000 NSC 10/08 Q1021 NOSIG
  • 092230Z AUTO 02004KT 6000 NSC 11/09 Q1021 NOSIG
  • 092200Z AUTO 36003KT 6000 NSC 12/10 Q1021 NOSIG

TAF TAF LFRB
Valido dal 10 a 00 ore il 11 a 06 ore UTC


092300Z 1000/1106 10003KT CAVOK
PROB30
TEMPO 1013/1016 20010KT
ATIS : +33 2 98 32 02 71



MetMap, La meteo Aeronautica in un colpo d'occhio ! - Copyright ORBIFLY Dicembre 2007 - Disclaimer

ORBIFLY MET'MAP TEAM :

Programmazione e sviluppo : Alexandra Zaïnal
Concezione : Baudouin d'Aumeries
Aiuto per la programmazione : Marc-Olivier Méhu
Supporto tecnico e logistico : Manuel Goepfert
Aiuto per la traduzione : Arnaldo La Scala

Contatto : metmap@orbifly.com




FONTI E CREDITI :

   NOAA